Weather History for KGRK - January, 2013

Change the Weather History Date:

Friday, January 25, 2013

  Actual Average Record
Temperature  
Mean Temperature 64 °F -  
Max Temperature 78 °F 59 °F 80 °F (2005)
Min Temperature 51 °F 38 °F 28 °F (2014)
Growing Degree Days 14 (Base 50)    
Moisture  
Dew Point 56 °F    
Average Humidity 78    
Maximum Humidity 100    
Minimum Humidity 51    
Precipitation  
Precipitation 0.00 in - - ()
Sea Level Pressure  
Sea Level Pressure 30.06 in    
Wind  
Wind Speed 12 mph (SW)    
Max Wind Speed 20 mph    
Max Gust Speed 24 mph    
Visibility 6 miles    
Events      
Averages and records for this station are not official NWS values.
T = Trace of Precipitation, MM = Missing Value Source: NWS Daily Summary

Daily Weather History Graph

Daily Weather History Graph

Search for Another Location

Airport or City:

Trip Planner

Search our weather history database for the weather conditions in past years. The results will help you decide how hot, cold, wet, or windy it might be!

Date:

Astronomy

Jan. 25, 2013 Rise Set
Actual Time 7:26 AM CST 6:00 PM CST
Civil Twilight 7:01 AM CST 6:26 PM CST
Nautical Twilight 6:32 AM CST 6:55 PM CST
Astronomical Twilight 6:03 AM CST 7:24 PM CST
Moon 4:59 PM CST (1/25) 6:06 AM CST (1/25)
Length of Visible Light 11h 25m
Length of Day
10h 33m
Waxing Gibbous, 98% of the Moon is Illuminated
Jan 25
Waxing Gibbous
Jan 26
Full
Feb 3
Last Quarter
Feb 10
New
Feb 17
First Quarter

Hourly Weather History & Observations

Time (CST) Temp. Dew Point Humidity Pressure Visibility Wind Dir Wind Speed Gust Speed Precip Events Conditions
12:55 AM 64.4 °F 59.0 °F 83% 30.08 in 7.0 mi South 16.1 mph - N/A   Clear
1:55 AM 62.6 °F 59.0 °F 88% 30.07 in 7.0 mi South 12.7 mph - N/A   Clear
2:55 AM 62.6 °F 57.2 °F 82% 30.06 in 7.0 mi SSW 13.8 mph - N/A   Partly Cloudy
3:55 AM 62.6 °F 59.0 °F 88% 30.04 in 7.0 mi South 15.0 mph - N/A   Scattered Clouds
4:55 AM 57.2 °F 57.2 °F 100% 30.05 in 6.0 mi South 11.5 mph - N/A   Scattered Clouds
5:55 AM 60.8 °F 59.0 °F 94% 30.05 in 5.0 mi South 16.1 mph - N/A   Scattered Clouds
6:55 AM 60.8 °F 60.8 °F 100% 30.06 in 5.0 mi South 15.0 mph - N/A   Scattered Clouds
7:55 AM 60.8 °F 60.8 °F 100% 30.08 in 4.0 mi South 12.7 mph - N/A   Scattered Clouds
8:55 AM 64.4 °F 62.6 °F 94% 30.10 in 5.0 mi South 9.2 mph - N/A   Mostly Cloudy
9:55 AM 66.2 °F 62.6 °F 88% 30.12 in 7.0 mi South 6.9 mph - N/A   Scattered Clouds
10:30 AM 69.8 °F 62.6 °F 78% 30.14 in 7.0 mi Variable 6.9 mph - N/A   Mostly Cloudy
10:55 AM 69.8 °F 62.6 °F 78% 30.13 in 7.0 mi Variable 3.5 mph - N/A   Mostly Cloudy
11:55 AM 73.4 °F 60.8 °F 65% 30.10 in 7.0 mi South 11.5 mph - N/A   Mostly Cloudy
12:55 PM 75.2 °F 60.8 °F 61% 30.07 in 7.0 mi SSE 8.1 mph 16.1 mph N/A   Mostly Cloudy
1:55 PM 78.8 °F 60.8 °F 54% 30.04 in 7.0 mi SSW 6.9 mph - N/A   Mostly Cloudy
2:55 PM 78.8 °F 59.0 °F 51% 30.03 in 7.0 mi North 19.6 mph 24.2 mph N/A   Mostly Cloudy
3:55 PM 69.8 °F 55.4 °F 60% 29.94 in 7.0 mi North 11.5 mph 17.3 mph N/A   Mostly Cloudy
4:55 PM 64.4 °F 51.8 °F 64% 29.95 in 7.0 mi North 10.4 mph - N/A   Mostly Cloudy
5:55 PM 62.6 °F 51.8 °F 68% 29.98 in 7.0 mi NNW 13.8 mph - N/A   Mostly Cloudy
7:55 PM 51.8 °F 46.4 °F 82% 30.03 in 6.0 mi NNW 11.5 mph - N/A   Mostly Cloudy
8:55 PM 51.8 °F 44.6 °F 76% 30.05 in 7.0 mi NNW 8.1 mph - N/A   Mostly Cloudy
9:55 PM 51.8 °F 44.6 °F 76% 30.04 in 7.0 mi NW 10.4 mph - N/A   Overcast
10:55 PM 51.8 °F 44.6 °F 76% 30.17 in 7.0 mi NW 8.1 mph - N/A   Overcast
11:55 PM 51.8 °F 44.6 °F 76% 30.18 in 7.0 mi NW 5.8 mph - N/A   Overcast